sat.trackr.live / text

‹ back to catalog

STARLINK-30951

NORAD 58439 · 2023-183C

PAYLOAD ACTIVE UNKNOWN

§ Identity

Operator
Country
US
Launch date
2023-11-28
Launch site
AFETR
Launch vehicle
Mass (kg)
RCS (m²)

Purposes: comms

External: N2YO · Heavens-Above · Gunter

§ Orbital elements

Epoch: 2026-09-20T08:25:16.963392Z

Period
94.27 min
Inclination
43.0033°
Eccentricity
0.0000929
Mean motion
15.27575429 rev/d
Perigee alt
482.4 km
Apogee alt
483.7 km
Semi-major
6,861.2 km
B*
-7.2498e-6
RAAN
22.4162°
Arg perigee
261.7940°
Mean anomaly
98.2806°
Rev number
15,650

§ Raw data

STARLINK-309511 58439U 23183C   26263.35089078 -.00000461  00000+0 -72498-5 0  99922 58439  43.0033  22.4162 0000929 261.7940  98.2806 15.27575429156507

JSON: /api/v1/satellites/58439 · /tle

For live sub-satellite position, see the globe view (requires WebGL).

§ Visibility from observer

Set your observer location to see the next 7 days of passes ≥ 10°. The values pass through the URL so the page stays shareable.

No JS? Fill the form by hand. The geolocation button needs JavaScript.